CAPE
0 0 0 0 0 0 0 0 0 0 0 21 0 0 105 155 93 1001 1475 819 357 943 1525 867 624 777 1071 1225 1275 928 635 456 105 31 43 7 23 238 220 383 765 756 367 130 144 33 0 0 0
0 0 0 0 0 0 0 0 0 0 0 0 0 0 424 418 1106 1600 1379 912 841 1303 1548 960 542 705 1026 1257 1219 885 738 445 79 44 55 25 59 293 305 336 577 622 268 0 0 0 0 0 0
0 0 0 0 0 0 0 0 0 0 0 0 0 112 774 812 1558 1342 1139 1073 944 1301 1339 1104 495 542 692 1014 1034 847 772 479 166 153 154 121 149 309 268 348 371 286 37 0 0 0 1 0 0
0 0 0 0 0 0 0 0 0 0 0 0 0 0 911 1369 1434 1043 975 1029 1043 1009 1096 1218 398 324 497 688 861 839 697 574 460 505 337 188 198 245 246 140 67 59 36 0 0 23 61 51 27
0 0 0 0 0 0 0 0 0 0 0 0 0 0 774 1714 1572 1082 1037 836 615 822 1021 1062 464 277 244 399 559 698 708 628 623 549 365 228 157 131 105 58 56 98 105 0 1 29 58 62 22
0 0 0 0 0 0 0 0 0 0 0 0 22 12 859 2091 1960 1100 1114 752 549 899 1114 918 612 333 231 208 297 466 581 542 585 483 327 221 159 115 98 73 82 136 45 18 34 51 46 52 41
0 0 0 0 0 0 0 0 0 0 0 31 153 315 1202 1965 2337 1445 1450 845 744 1064 1069 832 343 481 441 288 76 33 33 55 65 77 146 139 106 77 70 47 49 38 23 18 32 41 39 33 41
0 0 0 0 0 0 0 0 0 0 0 1 63 357 816 2062 2533 1797 1668 1057 866 1018 920 698 247 113 264 457 332 125 5 0 0 14 55 98 115 79 41 49 37 27 5 0 6 7 5 4 10
0 0 0 0 0 0 0 0 0 0 0 0 0 0 531 2247 2358 2028 1761 1244 728 739 863 591 261 113 136 269 436 291 221 143 47 37 92 37 0 31 198 35 249 36 14 5 0 0 0 0 0
0 0 0 0 0 0 0 0 0 0 0 0 8 0 1503 2075 1913 1696 1296 1029 656 648 755 626 426 258 171 197 475 233 203 93 12 11 102 4 0 49 37 106 97 59 51 39 14 0 0 0 0
0 0 0 0 0 0 0 0 0 0 0 0 0 0 4 1429 1767 1542 1026 713 634 598 696 714 828 642 455 313 523 288 326 258 308 303 354 31 27 41 19 5 45 41 43 25 64 66 37 0 0
0 0 0 0 0 0 0 0 0 0 0 0 0 0 0 0 0 1436 1411 1019 840 765 777 891 1195 1078 711 419 520 531 580 583 645 708 949 665 716 484 276 100 112 166 116 114 110 75 71 74 62
0 0 0 0 0 0 0 0 0 0 1 0 0 0 0 0 0 0 0 1604 1355 1228 1188 1165 1226 1432 1160 702 628 715 732 804 872 940 1018 825 804 696 810 709 761 652 681 678 769 731 828 802 761
0 0 0 0 0 0 0 0 0 0 3 1 0 0 0 0 0 0 0 63 1942 1649 1472 1361 1522 1671 1622 1372 1112 973 1006 853 1023 1019 1109 1199 1038 932 963 1002 940 838 795 734 716 755 865 885 828
0 0 0 0 0 0 0 0 0 0 0 0 0 0 0 0 0 0 0 0 179 1728 1991 1723 1663 1865 2029 1881 1757 1632 1358 1240 1197 1180 1307 1506 1498 1371 1418 1081 989 882 995 1114 1139 1128 1130 1109 988
0 0 0 0 0 0 0 0 0 3 0 0 16 0 0 0 0 0 0 0 0 65 1764 2325 2021 1826 2233 2144 2078 1943 1763 1724 1489 1420 1480 1797 1793 1644 1489 1125 1151 1252 1400 1471 1576 1563 1468 1393 1326
0 0 0 0 0 0 0 0 0 11 19 0 2 0 0 0 0 0 0 0 0 0 688 1769 2393 2073 2133 2357 2190 2131 2047 2026 1815 1662 1553 1660 1723 1525 1405 1431 1732 1991 1883 1888 1906 1808 1681 1462 1346
0 0 0 0 0 0 0 0 0 0 13 2 0 0 0 0 0 0 0 0 0 0 0 480 1599 2336 2470 2525 2505 2268 2217 2182 2032 1932 1670 1619 1532 1656 1864 1937 2109 2274 1979 1344 1228 1273 1095 998 938
1 0 0 0 0 0 0 0 0 0 0 0 0 0 0 0 0 2 0 0 0 0 0 6 114 1455 2462 2132 1876 1933 1886 2031 2062 1998 1708 1818 1929 2094 2100 2201 1896 1895 819 467 542 530 312 288 195
0 2 0 0 5 15 0 0 0 0 0 0 0 0 0 0 0 6 0 0 0 0 0 26 127 750 1896 1572 1659 1578 1759 1961 1996 1805 1690 1957 1889 1964 2108 1757 438 161 70 311 235 192 24 0 0
0 0 4 2 49 0 5 2 0 0 0 0 0 0 0 0 0 0 0 0 0 0 0 15 649 1580 1856 1824 2060 1722 1973 1776 1937 2026 2358 2368 2370 1811 568 164 42 43 40 0 36 16 0 0 0
0 0 0 2 8 78 14 87 2 0 0 0 0 0 0 0 0 0 0 0 0 1 69 495 1468 1906 2022 1584 924 1196 1177 996 1158 1470 1038 446 144 63 33 30 9 37 0 0 0 0 0 0 0
0 0 2 2 10 1 23 46 19 8 0 0 0 0 0 0 0 0 0 0 0 18 188 422 658 1048 946 1090 987 1235 1048 505 80 9 4 7 24 5 0 0 0 0 0 0 0 0 0 0 0
0 0 0 15 24 17 6 57 32 6 2 1 0 0 0 0 0 0 0 0 27 11 83 252 420 404 392 254 197 161 65 17 0 0 0 0 0 0 0 0 9 15 9 0 0 0 0 0 0
0 0 1 10 24 21 18 21 10 83 71 6 0 0 0 0 0 0 3 3 17 41 75 111 153 81 37 31 34 18 19 6 10 27 0 0 0 0 0 24 73 41 69 45 21 0 0 0 0
0 19 21 31 24 21 9 15 45 58 1 2 0 0 0 0 0 0 0 0 0 0 0 0 0 0 0 0 0 0 0 0 0 0 0 0 0 0 0 3 76 121 92 34 49 12 0 0 0
42 24 42 11 27 30 34 38 53 5 6 1 0 0 0 0 0 0 0 0 0 0 0 0 0 0 0 0 0 0 0 0 0 0 0 0 0 0 0 0 1 14 47 87 95 25 17 0 0
9 19 26 17 34 26 22 46 46 31 32 1 0 0 0 0 0 0 0 0 0 0 0 0 0 0 0 0 0 0 0 0 0 0 0 0 0 0 0 0 0 5 50 110 156 76 43 12 0
13 22 52 51 24 49 28 26 118 67 22 9 0 0 0 0 0 0 0 0 0 0 0 0 0 0 0 0 0 0 0 0 0 0 0 0 0 0 0 0 0 0 0 18 98 126 81 36 19
33 61 47 45 42 39 69 66 44 67 21 0 0 0 0 0 0 0 0 0 0 0 0 0 0 0 0 0 0 0 0 0 0 0 0 0 0 0 0 0 0 0 0 0 0 10 91 67 56
CIN
-0 -0 -0 -0 -0 -0 -0 -0 -0 -0 -0 -41 -0 -0 -40 -35 -5 -17 -244 -303 -334 -332 -285 -383 -403 -330 -235 -196 -172 -198 -217 -234 -363 -428 -390 -340 -356 -203 -213 -153 -53 -45 -84 -149 -145 -226 -0 -0 -0
-0 -0 -0 -0 -0 -0 -0 -0 -0 -0 -0 -0 -0 -0 -39 -15 -81 -194 -237 -366 -346 -336 -312 -334 -437 -359 -268 -200 -192 -207 -214 -235 -337 -375 -334 -350 -287 -192 -174 -165 -86 -65 -123 -0 -0 -0 -0 -0 -0
-0 -0 -0 -0 -0 -0 -0 -0 -0 -0 -0 -0 -0 -27 -22 -23 -119 -160 -255 -353 -347 -331 -322 -338 -456 -392 -330 -249 -211 -215 -207 -246 -300 -288 -278 -278 -275 -203 -193 -150 -144 -159 -246 -0 -0 -0 -21 -0 -0
-0 -0 -0 -0 -0 -0 -0 -0 -0 -0 -0 -0 -0 -0 -78 -158 -133 -205 -337 -337 -342 -333 -324 -367 -496 -452 -368 -308 -250 -227 -228 -229 -249 -210 -233 -258 -269 -237 -207 -214 -285 -285 -289 -0 -0 -257 -220 -240 -279
-0 -0 -0 -0 -0 -0 -0 -0 -0 -0 -0 -0 -0 -0 -33 -128 -194 -257 -318 -313 -333 -311 -309 -375 -481 -474 -441 -365 -305 -258 -227 -214 -205 -200 -234 -254 -278 -279 -257 -305 -324 -249 -223 -0 -42 -251 -220 -228 -277
-0 -0 -0 -0 -0 -0 -0 -0 -0 -0 -0 -0 -39 -29 -8 -101 -146 -248 -257 -280 -287 -296 -285 -353 -442 -461 -445 -408 -356 -304 -250 -232 -200 -227 -242 -257 -274 -294 -272 -282 -258 -218 -255 -289 -259 -236 -244 -230 -256
-0 -0 -0 -0 -0 -0 -0 -0 -0 -0 -0 -6 -19 -17 -12 -48 -88 -188 -210 -254 -274 -273 -274 -346 -449 -406 -386 -385 -409 -429 -409 -386 -364 -346 -298 -291 -283 -293 -281 -274 -258 -283 -318 -342 -315 -297 -304 -318 -305
-0 -0 -0 -0 -0 -0 -0 -0 -0 -0 -0 -3 -95 -10 -2 -18 -94 -146 -151 -209 -248 -241 -241 -314 -415 -433 -372 -309 -339 -348 -69 -15 -0 -391 -332 -296 -267 -276 -299 -281 -297 -309 -356 -0 -399 -417 -423 -423 -419
-0 -0 -0 -0 -0 -0 -0 -0 -0 -0 -0 -0 -0 -0 -82 -53 -90 -104 -124 -167 -218 -224 -218 -257 -320 -373 -345 -277 -279 -313 -290 -309 -367 -353 -309 -326 -0 -284 -174 -234 -157 -253 -292 -362 -0 -0 -0 -0 -0
-0 -0 -0 -0 -0 -0 -0 -0 -0 -0 -0 -0 -99 -0 -64 -39 -44 -67 -105 -120 -161 -178 -195 -206 -251 -277 -278 -246 -212 -278 -248 -268 -306 -306 -253 -136 -0 -183 -168 -123 -185 -216 -232 -270 -339 -30 -0 -0 -0
-0 -0 -0 -0 -0 -0 -0 -0 -0 -0 -0 -0 -0 -0 -14 -14 -2 -9 -49 -73 -100 -131 -155 -164 -181 -198 -185 -190 -157 -197 -173 -191 -169 -166 -145 -233 -190 -173 -196 -203 -165 -197 -242 -231 -203 -197 -251 -0 -0
-0 -0 -0 -0 -0 -0 -0 -0 -0 -0 -0 -0 -0 -0 -0 -0 -0 -5 -1 -15 -48 -82 -117 -137 -138 -160 -171 -173 -145 -106 -113 -126 -97 -86 -56 -58 -49 -56 -69 -95 -84 -97 -100 -102 -107 -130 -149 -155 -170
-0 -0 -0 -0 -0 -0 -0 -0 -0 -0 -19 -0 -0 -0 -0 -0 -0 -0 -0 -2 -2 -36 -71 -106 -124 -139 -155 -167 -135 -106 -111 -102 -77 -70 -65 -62 -40 -36 -26 -25 -21 -13 -7 -11 -13 -10 -16 -24 -43
-0 -0 -0 -0 -0 -0 -0 -0 -0 -0 -1 -2 -0 -0 -0 -0 -0 -0 -0 -25 -2 -18 -43 -75 -100 -116 -118 -126 -125 -124 -108 -89 -75 -67 -49 -48 -33 -32 -15 -18 -20 -24 -17 -11 -10 -10 -14 -17 -25
-0 -0 -0 -0 -0 -0 -0 -0 -0 -0 -0 -0 -0 -0 -0 -0 -0 -0 -0 -0 -107 -4 -27 -68 -85 -94 -99 -96 -91 -82 -78 -83 -74 -60 -34 -14 -18 -9 -16 -16 -23 -27 -15 -26 -28 -34 -34 -35 -32
-0 -0 -0 -0 -0 -0 -0 -0 -0 -2 -0 -0 -36 -0 -0 -0 -0 -0 -0 -0 -0 -28 -22 -49 -60 -78 -100 -86 -74 -67 -54 -57 -50 -36 -20 -9 -5 -18 -27 -32 -13 -6 -5 -2 -2 -0 -1 -3 -2
-0 -0 -0 -0 -0 -0 -0 -0 -0 -6 -3 -0 -2 -0 -0 -0 -0 -0 -0 -0 -0 -0 -53 -50 -60 -66 -91 -84 -66 -62 -48 -33 -15 -8 -10 -11 -8 -31 -50 -18 -1 -3 -0 -0 -0 -1 -1 -2 -4
-0 -0 -0 -0 -0 -0 -0 -0 -0 -3 -5 -2 -0 -0 -0 -0 -0 -0 -0 -0 -0 -0 -0 -137 -65 -69 -65 -53 -46 -28 -21 -19 -6 -7 -11 -29 -48 -26 -15 -3 -0 -0 -1 -1 -10 -26 -18 -20 -13
-2 -0 -0 -0 -0 -0 -0 -0 -0 -0 -0 -0 -0 -0 -0 -0 -0 -80 -0 -0 -0 -0 -0 -225 -162 -92 -85 -87 -80 -61 -45 -24 -10 -7 -14 -12 -5 -2 -5 -1 -0 -3 -42 -62 -56 -61 -87 -94 -84
-0 -5 -0 -0 -6 -4 -0 -0 -0 -0 -0 -0 -0 -0 -0 -0 -16 -130 -0 -0 -0 -0 -30 -96 -68 -154 -145 -99 -80 -50 -28 -11 -9 -11 -16 -10 -9 -4 -2 -4 -55 -104 -111 -119 -137 -141 -167 -0 -0
-0 -0 -3 -2 -4 -0 -3 -1 -0 -0 -0 -0 -0 -0 -0 -0 -0 -0 -0 -0 -0 -0 -0 -94 -75 -136 -141 -88 -61 -85 -33 -51 -32 -13 -4 -2 -0 -10 -72 -115 -151 -162 -193 -0 -149 -88 -0 -0 -0
-0 -0 -0 -3 -9 -6 -24 -6 -37 -0 -0 -0 -0 -0 -0 -0 -0 -0 -0 -0 -0 -64 -144 -143 -130 -118 -99 -134 -153 -104 -52 -38 -33 -36 -42 -96 -128 -147 -151 -187 -217 -191 -0 -0 -0 -0 -0 -0 -0
-0 -0 -3 -5 -5 -21 -13 -10 -69 -49 -0 -0 -0 -0 -0 -0 -0 -0 -0 -0 -0 -242 -203 -224 -233 -181 -180 -151 -101 -66 -37 -44 -113 -143 -173 -148 -193 -228 -0 -0 -0 -0 -0 -0 -0 -0 -0 -0 -0
-0 -0 -0 -5 -8 -7 -15 -8 -53 -54 -6 -0 -0 -0 -0 -0 -0 -0 -0 -0 -346 -455 -354 -348 -283 -257 -225 -233 -225 -194 -198 -67 -0 -0 -0 -0 -0 -0 -0 -50 -172 -146 -161 -0 -0 -0 -0 -0 -0
-0 -0 -5 -4 -6 -8 -13 -12 -56 -14 -43 -33 -0 -0 -0 -0 -0 -0 -460 -440 -364 -344 -376 -360 -356 -432 -216 -399 -365 -375 -341 -123 -97 -72 -0 -0 -0 -0 -0 -142 -125 -115 -111 -109 -99 -0 -0 -0 -0
-0 -5 -8 -6 -9 -5 -18 -5 -3 -68 -53 -104 -0 -0 -0 -0 -0 -0 -0 -0 -0 -0 -0 -60 -0 -0 -0 -0 -0 -0 -0 -0 -0 -0 -0 -0 -0 -0 -0 -38 -113 -74 -62 -77 -59 -72 -0 -0 -0
-8 -6 -5 -10 -16 -15 -7 -8 -58 -103 -101 -121 -0 -0 -0 -0 -0 -0 -0 -0 -0 -0 -0 -0 -0 -0 -0 -0 -0 -0 -0 -0 -0 -0 -0 -0 -0 -0 -0 -0 -92 -118 -63 -28 -20 -30 -29 -0 -0
-4 -15 -4 -7 -5 -8 -20 -9 -4 -38 -61 -62 -0 -0 -0 -0 -0 -0 -0 -0 -0 -0 -0 -0 -0 -0 -0 -0 -0 -0 -0 -0 -0 -0 -0 -0 -0 -0 -0 -0 -0 -57 -56 -23 -4 -5 -5 -31 -0
-5 -5 -4 -10 -9 -6 -11 -18 -12 -4 -51 -95 -0 -0 -0 -0 -0 -0 -0 -0 -0 -0 -0 -0 -0 -0 -0 -0 -0 -0 -0 -0 -0 -0 -0 -0 -0 -0 -0 -0 -0 -0 -0 -24 -12 -4 -5 -8 -14
-21 -6 -7 -3 -3 -8 -5 -8 -39 -42 -71 -1 -0 -0 -0 -0 -0 -0 -0 -0 -0 -0 -0 -0 -0 -0 -0 -0 -0 -0 -0 -0 -0 -0 -0 -0 -0 -0 -0 -0 -0 -0 -0 -0 -0 -33 -1 -1 -2
Wind_Speed
27 25 24 25 26 25 31 26 28 21 17 16 21 20 18 20 18 15 9 5 22 23 25 26 25 22 22 23 21 21 21 22 23 23 24 25 25 25 25 25 24 24 23 23 22 21 21 21 22
24 25 24 27 30 31 28 24 24 24 20 24 23 19 18 17 14 10 6 4 18 19 22 25 26 22 20 21 21 22 22 22 23 23 23 22 22 22 22 22 21 20 20 19 19 19 19 19 20
27 23 29 30 37 37 29 19 27 22 23 25 21 19 17 15 13 5 7 6 13 15 20 20 24 23 18 17 18 20 20 21 20 19 19 18 18 18 19 19 18 17 17 17 17 17 17 18 18
22 23 28 36 37 36 34 23 20 23 24 20 21 21 16 16 9 7 4 10 9 12 16 15 18 19 18 16 16 16 17 17 16 15 14 15 15 16 17 16 15 15 15 15 15 15 15 15 15
23 27 38 41 43 41 29 32 26 26 26 25 24 25 18 15 10 1 4 8 8 9 12 13 14 16 15 14 14 14 13 13 13 12 12 13 14 14 14 13 13 13 13 13 13 12 12 12 11
28 30 43 48 40 39 32 29 28 29 28 27 24 24 16 13 9 3 1 4 7 7 6 10 10 11 12 11 10 10 11 12 11 11 11 11 11 12 12 11 11 10 10 10 10 9 9 9 9
34 33 45 43 42 38 34 32 33 28 27 21 22 22 16 15 11 7 4 3 4 5 6 6 8 8 8 8 7 8 9 9 9 9 9 9 10 9 9 9 8 8 8 8 8 8 8 8 9
32 40 44 45 44 40 32 28 28 27 21 20 19 19 19 13 11 8 7 4 4 5 4 5 5 7 7 6 5 6 5 6 6 6 7 7 6 6 6 6 5 5 6 7 8 10 10 10 10
26 43 49 44 40 40 32 33 26 23 22 19 16 19 23 12 11 10 9 8 7 6 4 3 3 4 5 4 4 3 2 2 3 4 4 5 5 5 4 4 4 4 6 8 9 10 11 13 12
31 44 47 38 39 37 36 33 34 29 26 21 18 19 14 12 11 11 11 10 10 9 6 4 3 3 3 2 2 3 2 0 1 1 2 2 2 2 2 3 4 6 8 9 9 10 10 11 12
32 49 39 41 36 36 36 37 35 37 30 26 21 17 13 16 16 16 12 11 11 9 7 5 3 3 3 2 1 2 1 2 3 2 1 1 3 4 4 7 7 8 8 11 9 10 10 11 14
36 37 41 38 34 35 40 36 40 39 34 23 25 20 18 15 19 22 17 13 12 11 10 8 5 4 4 3 3 2 2 3 4 3 2 3 5 6 7 8 10 11 12 13 14 15 15 16 16
32 34 33 38 36 38 37 42 43 41 37 24 30 27 22 20 19 19 25 20 16 15 12 10 8 8 7 6 5 7 8 6 5 4 4 4 6 8 9 11 13 14 14 15 16 18 18 19 18
25 33 34 33 38 41 41 42 40 43 38 36 37 40 33 28 26 24 21 24 22 19 18 15 13 11 9 8 8 9 10 9 8 8 8 7 8 10 11 12 13 15 17 18 19 20 21 22 23
26 31 33 37 38 40 44 50 48 42 38 47 43 41 43 36 31 28 25 25 25 25 22 20 17 15 12 10 12 12 11 11 10 11 11 10 11 13 14 15 16 16 17 19 20 22 22 23 23
20 25 39 36 36 41 39 58 50 39 44 41 45 41 44 46 38 32 29 27 23 23 20 18 18 15 14 13 15 16 16 15 14 14 14 13 13 14 14 17 18 18 20 20 21 22 23 24 25
14 28 31 37 36 39 43 55 49 42 44 48 45 42 44 53 41 36 31 28 27 25 24 20 18 19 17 18 20 19 18 18 17 17 16 15 15 15 17 17 20 19 19 20 22 24 25 28 28
11 13 21 34 33 37 48 50 48 37 39 47 48 48 42 61 53 37 33 32 28 27 25 24 23 21 20 21 21 22 21 20 18 17 17 16 16 15 16 20 20 19 21 21 21 23 26 27 30
17 11 14 24 30 38 46 52 47 46 43 44 45 50 48 50 50 41 37 35 33 30 29 28 25 24 21 21 21 22 21 20 18 17 16 14 14 15 16 17 17 18 20 22 23 25 27 30 32
7 11 11 24 24 32 38 44 44 43 46 43 42 45 51 54 50 42 39 35 32 34 32 30 28 25 23 22 21 20 18 16 16 15 15 16 16 16 15 16 17 18 21 22 24 25 29 31 31
7 7 7 18 21 11 28 37 35 36 35 34 34 38 43 49 38 36 37 32 33 31 30 31 27 23 19 14 12 15 13 14 13 13 14 14 14 13 13 15 18 19 21 23 23 25 29 33 32
6 10 3 7 24 22 7 29 26 27 31 30 29 31 28 32 36 31 37 39 36 36 30 22 12 11 13 14 15 16 16 18 16 15 14 12 12 14 16 17 19 20 22 23 24 26 27 30 34
6 13 8 4 31 34 21 28 7 15 24 26 23 22 26 21 36 40 38 37 33 20 9 12 13 12 12 13 16 16 20 18 16 15 14 15 17 18 19 20 20 21 22 24 25 26 27 29 32
13 12 27 22 27 30 36 30 19 12 19 13 9 10 12 16 17 23 25 24 17 16 14 12 11 12 12 12 14 17 18 19 18 18 20 21 21 21 23 23 22 23 24 25 26 27 28 29 31
5 2 3 4 14 26 33 27 28 8 12 12 9 6 7 7 9 9 12 13 14 14 15 14 13 16 16 17 17 19 20 21 22 24 24 26 26 26 26 26 28 27 27 28 28 28 29 28 30
9 11 29 2 8 17 14 27 28 16 12 10 7 5 6 6 6 6 9 10 11 12 13 13 16 18 17 18 19 20 22 23 25 26 28 29 30 30 32 33 33 33 33 32 32 31 30 30 29
14 21 30 30 27 21 5 16 14 12 12 9 8 8 9 8 8 7 7 9 11 13 14 15 16 17 19 19 20 21 24 25 27 29 30 32 32 34 35 36 37 37 37 36 35 34 34 33 32
31 21 18 24 26 8 15 9 22 12 13 12 10 9 8 9 10 9 10 11 12 13 14 16 17 18 19 20 23 24 26 28 30 32 34 35 36 37 38 39 39 39 38 37 37 37 36 37 35
21 25 27 24 29 27 29 25 11 10 11 13 11 10 10 10 11 11 12 13 14 15 16 18 19 21 23 25 27 29 31 33 35 36 37 38 39 39 40 40 41 40 40 40 40 40 41 41 40
20 25 27 26 25 26 30 22 14 10 10 8 8 10 10 11 12 13 14 15 16 18 18 20 22 24 27 29 32 34 36 37 38 39 40 40 42 42 43 44 44 44 43 43 42 43 41 41 41
Wind_Direction
278 284 283 274 267 266 259 262 261 273 279 290 289 281 278 280 271 289 312 8 110 113 117 124 120 111 109 109 107 108 110 111 112 112 112 114 114 114 112 109 106 104 104 104 100 95 91 92 92
280 283 275 267 260 259 262 264 263 266 281 283 281 283 283 283 286 311 344 317 111 108 114 122 125 113 103 104 107 110 111 112 113 113 112 107 107 108 108 106 103 98 98 97 96 93 91 91 91
273 277 264 261 255 254 260 270 264 272 277 279 279 281 286 291 291 323 321 91 111 107 114 115 124 121 106 101 106 111 110 112 112 108 105 102 100 103 105 104 97 94 92 93 94 94 94 94 90
269 269 266 256 254 252 257 272 269 272 274 284 278 279 284 288 301 308 86 110 114 110 114 113 120 120 115 107 107 107 110 110 107 100 96 97 99 102 106 103 95 92 89 91 94 95 96 92 89
263 265 256 254 253 250 259 259 270 270 272 274 279 270 279 284 296 339 89 119 120 116 114 118 120 120 119 114 110 110 108 107 103 98 95 100 103 104 107 101 98 90 88 90 91 91 88 84 79
255 259 253 250 255 253 256 261 266 267 272 270 274 269 276 279 280 241 198 137 119 120 121 121 121 119 118 115 110 106 109 109 105 101 101 101 102 105 106 103 94 85 80 75 69 68 66 58 53
252 254 254 256 256 255 256 260 257 267 270 270 272 268 280 266 270 257 259 199 152 130 128 131 127 122 117 116 112 110 108 108 107 102 101 103 107 104 103 97 86 68 47 37 30 22 17 10 8
256 255 256 254 253 256 258 262 257 260 267 274 275 268 276 264 261 258 262 229 191 160 154 142 136 131 129 124 119 114 103 103 101 97 99 101 97 94 96 85 70 39 19 7 356 350 348 345 345
259 253 252 253 254 256 262 254 250 263 270 270 272 282 278 270 259 257 257 246 235 226 214 194 174 150 143 133 139 125 98 74 80 85 90 93 99 103 95 97 29 12 354 341 339 336 332 328 329
253 252 252 260 259 258 256 255 248 255 258 260 265 291 285 262 258 259 254 246 240 240 231 220 213 178 173 170 153 159 141 82 71 70 78 88 71 54 28 354 335 332 327 327 328 329 330 329 328
259 254 261 259 263 259 259 256 254 251 251 250 254 277 287 265 260 264 262 254 246 247 245 231 204 209 192 201 222 164 205 291 295 303 338 349 341 334 325 327 325 319 317 319 322 322 324 324 323
261 263 259 262 260 260 257 261 252 249 250 250 250 267 274 277 267 264 265 264 258 255 252 246 228 231 234 251 247 231 268 278 291 286 285 309 316 318 318 317 318 318 317 317 315 316 315 316 316
262 265 263 259 260 260 261 257 254 252 251 253 249 255 264 271 277 280 269 270 265 260 260 255 250 249 251 253 266 273 278 280 287 290 277 288 303 309 310 310 310 312 314 313 312 311 312 312 312
277 267 264 262 259 256 256 256 256 251 254 252 252 247 257 264 271 277 281 272 270 266 264 263 260 257 254 252 267 274 279 283 285 288 289 279 296 302 305 307 308 308 308 309 310 310 310 310 310
278 274 266 261 260 260 254 253 249 251 256 252 250 249 250 259 267 270 279 279 271 268 266 263 262 261 260 259 265 273 279 279 282 285 286 286 287 294 298 302 304 306 309 310 310 309 309 309 310
281 273 267 262 260 255 255 250 248 253 253 255 250 251 249 251 259 269 275 279 278 276 269 265 263 262 262 265 270 275 280 282 283 284 285 283 284 289 296 298 301 304 305 307 309 311 311 311 310
280 279 274 267 260 256 249 252 251 252 254 251 251 252 254 245 256 264 275 278 278 279 273 270 266 266 267 270 273 276 280 281 283 284 283 283 282 286 292 295 300 303 306 307 309 310 311 311 311
285 282 286 271 265 258 250 252 249 253 255 253 251 249 251 239 248 264 273 279 279 278 273 271 268 270 272 274 274 277 280 281 282 282 282 282 282 283 288 297 301 305 306 307 310 312 313 313 312
312 314 302 286 275 260 253 251 249 249 254 255 253 252 251 244 248 259 272 280 274 273 272 266 266 269 269 271 275 277 280 281 282 283 283 283 285 287 292 298 302 304 306 310 312 312 313 313 313
296 314 311 299 278 268 255 253 252 250 250 254 256 256 251 247 243 256 270 269 270 276 269 264 265 266 268 274 278 283 285 285 286 286 285 284 286 289 294 299 304 306 309 310 312 314 314 313 314
196 293 310 301 302 288 259 257 253 249 253 253 258 261 257 245 233 257 265 260 274 282 271 263 263 263 268 283 291 295 296 296 290 291 291 291 292 295 299 302 304 307 308 310 313 315 315 315 316
212 178 234 312 275 269 232 259 252 250 250 252 257 263 264 238 240 258 266 262 266 275 269 269 263 267 274 277 282 284 288 288 291 292 294 297 296 297 299 301 303 305 309 310 312 314 316 317 315
247 285 179 223 216 238 270 256 278 245 250 250 260 270 263 261 251 262 265 266 270 277 274 271 268 272 279 281 285 287 289 292 295 297 298 296 296 297 298 299 301 302 305 308 310 313 315 317 316
283 184 229 197 201 204 232 245 259 255 254 247 264 282 282 259 259 255 260 260 270 272 275 279 278 284 289 292 293 293 294 295 297 297 297 297 296 297 295 296 298 300 302 304 306 308 309 312 314
262 177 149 188 181 193 247 254 246 299 266 261 267 292 295 289 271 269 269 275 276 277 276 280 283 287 292 293 295 295 295 295 296 297 297 295 296 296 297 298 298 298 298 299 300 303 305 307 308
250 260 224 241 172 177 268 254 257 271 271 270 276 292 305 320 322 316 293 290 290 291 293 291 287 289 295 297 298 299 298 296 296 298 298 297 297 298 299 299 299 297 296 296 298 298 298 302 302
260 259 254 256 253 258 261 265 280 276 262 270 275 282 292 304 315 327 320 310 310 304 302 301 299 298 301 302 303 302 300 300 300 301 302 301 300 299 298 297 297 296 295 294 294 294 295 295 296
252 260 262 261 256 261 273 271 265 257 258 268 277 288 296 305 306 317 318 318 316 316 313 310 307 304 304 305 302 302 302 303 304 303 302 300 300 300 299 299 298 297 295 293 292 291 291 291 290
253 256 258 270 260 257 249 262 285 268 275 271 279 288 295 300 304 316 318 320 317 315 315 311 308 306 304 303 303 302 303 303 302 301 301 301 301 301 300 299 298 297 296 294 291 289 289 288 288
264 257 257 260 263 266 262 277 293 289 287 287 294 295 298 300 303 310 313 315 316 315 314 312 310 308 307 306 304 303 303 303 302 303 302 302 301 300 299 298 297 296 295 293 291 289 287 285 284